This demonstration page uses our WeatherBlox Daily Observations layout. Learn more.

Left ArrowRight Arrow

Hourly Observations for December 19, 2019

Temp ( °F °C ) Dew Point ( °F °C ) Humidity (%) Winds ( mph kmh ) Pressure ( in mb ) Visibility ( mi km ) Precip ( " mm )
12:03 am 00:03 Cloudy with Rain 44 6.7 42 5.6 93 93 Calm 30.13 1020 2 3 0.00 0.00
12:22 am 00:22 Cloudy with Rain 44 6.7 42 5.6 93 93 Calm 30.12 1020 2 3 0.00 0.00
12:53 am 00:53 Cloudy with Rain 44 6.7 42 5.6 93 93 WNW 3 6 30.11 1020 2 3 0.01 0.25
1:06 am 01:06 Cloudy with Rain 44 6.7 42 5.6 93 93 Calm 30.13 1020 2 3 0.01 0.25
1:15 am 01:15 Cloudy with Rain 44 6.7 42 5.6 93 93 W 5 7 30.13 1020 2 3 0.01 0.25
1:31 am 01:31 Cloudy with Rain 44 6.7 42 5.6 93 93 W 3 6 30.14 1021 2 3 0.02 0.51
1:53 am 01:53 Cloudy with Rain 44 6.7 43 6.1 96 96 Calm 30.13 1020 3 4 0.02 0.51
2:12 am 02:12 Cloudy with Rain 44 6.7 43 6.1 96 96 Calm 30.15 1021 3 4 0.01 0.25
2:24 am 02:24 Cloudy with Rain 44 6.7 43 6.1 96 96 Calm 30.15 1021 3 5 0.02 0.51
2:29 am 02:29 Cloudy with Rain 44 6.7 43 6.1 96 96 Calm 30.15 1021 3 4 0.02 0.51
2:36 am 02:36 Cloudy with Rain 44 6.7 43 6.1 96 96 Calm 30.15 1021 3 5 0.03 0.76
2:44 am 02:44 Cloudy with Rain 44 6.7 43 6.1 96 96 Calm 30.15 1021 3 5 0.03 0.76
2:53 am 02:53 Cloudy with Rain 44 6.7 43 6.1 96 96 Calm 30.14 1021 3 4 0.04 1.02
3:08 am 03:08 Cloudy with Rain 44 6.7 42 5.6 93 93 Calm 30.15 1021 3 5 0.00 0.00
3:20 am 03:20 Cloudy with Rain 44 6.7 43 6.1 96 96 Calm 30.15 1021 4 6 0.00 0.00
3:53 am 03:53 Cloudy with Rain 44 6.7 42 5.6 93 93 Calm 30.14 1021 3 5 0.02 0.51
4:12 am 04:12 Cloudy with Rain 44 6.7 43 6.1 96 96 Calm 30.16 1021 3 4 0.02 0.51
4:24 am 04:24 Cloudy with Rain 44 6.7 43 6.1 96 96 Calm 30.15 1021 3 5 0.03 0.76
4:29 am 04:29 Cloudy with Rain 44 6.7 43 6.1 96 96 E 3 6 30.14 1021 3 5 0.04 1.02
4:53 am 04:53 Cloudy with Rain 44 6.7 43 6.1 96 96 NNE 3 6 30.14 1021 5 8 0.06 1.52
5:53 am 05:53 Cloudy with Rain 44 6.7 43 6.1 96 96 Calm 30.15 1021 4 6 0.02 0.51
6:19 am 06:19 Cloudy with Light Rain 44 6.7 43 6.1 96 96 Calm 30.17 1022 3 5 0.01 0.25
6:53 am 06:53 Cloudy with Mist and Fog 44 6.7 42 5.6 93 93 Calm 30.17 1022 4 6 0.02 0.51
7:07 am 07:07 Cloudy with Mist and Fog 45 7.2 43 6.1 93 93 Calm 30.19 1022 4 6 0.00 0.00
7:19 am 07:19 Cloudy with Light Rain 44 6.7 43 6.1 96 96 Calm 30.19 1022 3 4 0.00 0.00
7:53 am 07:53 Cloudy with Light Rain 45 7.2 43 6.1 93 93 ENE 3 6 30.18 1022 2 3 0.02 0.51
8:16 am 08:16 Cloudy with Light Rain 45 7.2 43 6.1 93 93 Calm 30.19 1022 2 3 0.01 0.25
8:53 am 08:53 Cloudy with Light Rain 45 7.2 43 6.1 93 93 ENE 3 6 30.20 1023 2 3 0.05 1.27
9:47 am 09:47 Cloudy with Light Rain 46 8 45 7 93 93 Calm 30.23 1024 2 3 0.03 0.76
9:53 am 09:53 Cloudy with Light Rain 46 7.8 44 6.7 93 93 Calm 30.22 1024 2 3 0.04 1.02
10:00 am 10:00 Cloudy with Light Rain 46 7.8 44 6.7 93 93 Calm 30.23 1024 2 2 0.00 0.00
10:14 am 10:14 Cloudy with Light Rain 46 7.8 44 6.7 93 93 Calm 30.24 1024 2 3 0.01 0.25
10:39 am 10:39 Cloudy with Light Rain 46 7.8 45 7.2 96 96 NNE 3 6 30.23 1024 3 4 0.03 0.76
10:53 am 10:53 Cloudy with Light Rain 47 8.3 45 7.2 93 93 Calm 30.22 1023 3 4 0.03 0.76
11:08 am 11:08 Cloudy with Mist and Fog 47 8.3 45 7.2 93 93 N 3 6 30.23 1024 3 5 0.01 0.25
11:34 am 11:34 Cloudy with Mist and Fog 47 8.3 45 7.2 93 93 NNE 3 6 30.21 1023 3 5 0.01 0.25
11:53 am 11:53 Cloudy with Mist and Fog 47 8.3 45 7.2 93 93 NNE 3 6 30.20 1023 3 4 0.01 0.25
12:01 pm 12:01 Cloudy with Light Rain 47 8.3 45 7.2 93 93 NE 3 6 30.21 1023 1 2 0.00 0.00
12:09 pm 12:09 Cloudy with Light Rain 47 8.3 45 7.2 93 93 Calm 30.20 1023 2 2 0.01 0.25
12:16 pm 12:16 Cloudy with Mist and Fog 47 8.3 45 7.2 93 93 Calm 30.20 1023 2 3 0.01 0.25
12:23 pm 12:23 Cloudy with Mist and Fog 47 8.3 45 7.2 93 93 Calm 30.20 1023 2 3 0.01 0.25
12:38 pm 12:38 Cloudy with Mist and Fog 47 8.3 45 7.2 93 93 Calm 30.20 1023 4 6 0.01 0.25
12:45 pm 12:45 Cloudy with Mist and Fog 47 8.3 45 7.2 93 93 Calm 30.19 1022 6 10 0.01 0.25
12:53 pm 12:53 Cloudy with Mist and Fog 47 8.3 45 7.2 93 93 Calm 30.19 1022 2 3 0.01 0.25
1:53 pm 13:53 Cloudy with Mist and Fog 47 8.3 45 7.2 93 93 Calm 30.19 1022 2 3 0.01 0.25
2:00 pm 14:00 Cloudy with Light Rain 47 8.3 45 7.2 93 93 NE 3 6 30.20 1023 2 2 0.01 0.25
2:13 pm 14:13 Cloudy with Light Rain 47 8.3 46 7.8 97 97 Calm 30.20 1023 1 2 0.02 0.51
2:32 pm 14:32 Cloudy with Light Rain 48 8.9 46 7.8 93 93 Calm 30.20 1023 2 2 0.04 1.02
2:53 pm 14:53 Cloudy with Light Rain 48 8.9 46 7.8 93 93 ENE 3 6 30.20 1023 2 3 0.06 1.52
3:31 pm 15:31 Cloudy with Mist and Fog 47 8.3 46 7.8 97 97 NE 3 6 30.21 1023 3 5 0.02 0.51
3:38 pm 15:38 Cloudy with Mist and Fog 47 8.3 46 7.8 97 97 Calm 30.21 1023 2 3 0.02 0.51
3:53 pm 15:53 Cloudy with Light Rain 47 8.3 46 7.8 97 97 ENE 3 6 30.20 1023 2 3 0.02 0.51
4:03 pm 16:03 Cloudy with Light Rain 47 8.3 46 7.8 97 97 Calm 30.21 1023 2 3 0.01 0.25
4:20 pm 16:20 Cloudy with Light Rain 47 8.3 46 7.8 97 97 Calm 30.21 1023 2 3 0.02 0.51
4:27 pm 16:27 Cloudy with Light Rain 47 8.3 46 7.8 97 97 Calm 30.21 1023 3 4 0.02 0.51
4:34 pm 16:34 Cloudy with Light Rain 47 8.3 46 7.8 97 97 Calm 30.21 1023 2 3 0.02 0.51
4:46 pm 16:46 Cloudy with Light Rain 47 8.3 46 7.8 97 97 Calm 30.21 1023 3 5 0.03 0.76
4:53 pm 16:53 Cloudy with Light Rain 47 8.3 46 7.8 97 97 Calm 30.20 1023 3 5 0.03 0.76
4:56 pm 16:56 Cloudy with Light Rain 47 8.3 46 7.8 97 97 ENE 3 6 30.21 1023 3 4 0.00 0.00
5:08 pm 17:08 Cloudy with Light Rain 47 8.3 46 7.8 97 97 NNE 3 6 30.21 1023 3 4 0.01 0.25
5:15 pm 17:15 Cloudy with Light Rain 47 8.3 46 7.8 97 97 Calm 30.21 1023 3 5 0.01 0.25
5:25 pm 17:25 Cloudy with Mist and Fog 47 8.3 46 7.8 97 97 NNE 3 6 30.21 1023 2 3 0.01 0.25
5:33 pm 17:33 Cloudy with Light Rain 47 8.3 46 7.8 97 97 Calm 30.21 1023 2 3 0.01 0.25
5:39 pm 17:39 Cloudy with Light Rain 47 8.3 46 7.8 97 97 Calm 30.21 1023 2 3 0.02 0.51
5:53 pm 17:53 Cloudy with Mist and Fog 47 8.3 46 7.8 97 97 Calm 30.20 1023 2 3 0.02 0.51
6:53 pm 18:53 Cloudy with Mist and Fog 48 8.9 46 7.8 93 93 Calm 30.22 1023 2 3 0.00 0.00
7:53 pm 19:53 Cloudy with Mist and Fog 47 8.3 46 7.8 97 97 NE 5 7 30.22 1023 2 3 0.00 0.00
7:58 pm 19:58 Cloudy with Mist and Fog 47 8.3 46 7.8 97 97 NE 3 6 30.23 1024 3 5 0.00 0.00
8:53 pm 20:53 Cloudy with Mist and Fog 47 8.3 46 7.8 97 97 Calm 30.23 1024 4 6 0.00 0.00
9:22 pm 21:22 Cloudy with Mist and Fog 47 8.3 46 7.8 97 97 Calm 30.23 1024 3 4 0.00 0.00
9:53 pm 21:53 Cloudy with Mist and Fog 47 8.3 46 7.8 97 97 ENE 3 6 30.23 1024 2 3 0.00 0.00
10:53 pm 22:53 Cloudy with Mist and Fog 47 8.3 46 7.8 97 97 Calm 30.23 1024 2 3 0.00 0.00
11:14 pm 23:14 Cloudy with Mist and Fog 47 8.3 46 7.8 97 97 Calm 30.24 1024 3 5 0.00 0.00
11:28 pm 23:28 Cloudy with Mist and Fog 48 8.9 46 7.8 93 93 Calm 30.25 1024 3 5 0.00 0.00
11:53 pm 23:53 Cloudy with Mist and Fog 48 8.9 46 7.8 93 93 Calm 30.24 1024 3 5 0.00 0.00

Powered by AerisWeather